Location: Millers Ferry
(32.0990°N, 87.3680°W)
Time: 19:18:36
(UTC-05:00)

CSL-04 Rocket - Visible Passes

Search period start: 25 October 2014 00:00
Search period end: 03 November 2014 23:00
Orbit: 807 x 860 km, 98.9° (Epoch: 24 October)

Date Brightness Start Highest point End Pass type
(mag) Time Alt. Az. Time Alt. Az. Time Alt. Az.
25 Oct 3.7 05:11:24 10° NNE 05:16:59 83° ESE 05:22:31 10° SSW visible
26 Oct 4.3 04:54:45 10° NNE 05:00:13 56° E 05:05:38 10° S visible
26 Oct 5.2 06:36:43 10° NNW 06:40:00 16° WNW 06:43:17 10° WSW visible
27 Oct 5.0 04:38:16 10° NNE 04:43:25 38° E 04:48:31 10° SSE visible
27 Oct 4.8 06:19:10 10° NNW 06:23:26 23° WNW 06:27:41 10° WSW visible
28 Oct 5.7 04:21:59 10° NE 04:26:34 26° E 04:31:07 10° SSE visible
28 Oct 4.3 06:01:55 10° N 06:06:49 33° WNW 06:11:42 10° SW visible
29 Oct 6.2 04:06:02 10° NE 04:09:42 18° E 04:13:19 10° SE visible
29 Oct 3.9 05:44:52 10° N 05:50:11 48° WNW 05:55:27 10° SW visible
30 Oct 6.6 03:50:57 10° ENE 03:52:46 12° E 03:54:35 10° ESE visible
30 Oct 3.6 05:27:58 10° N 05:33:29 70° WNW 05:38:58 10° SSW visible
31 Oct 3.7 05:11:11 10° NNE 05:16:45 81° ESE 05:22:16 10° S visible
01 Nov 4.3 04:54:32 10° NNE 04:59:59 56° E 05:05:22 10° S visible
01 Nov 5.1 06:36:27 10° NNW 06:39:47 16° WNW 06:43:05 10° WSW visible
02 Nov 5.0 03:38:03 10° NNE 03:43:11 38° E 03:48:15 10° SSE visible
02 Nov 4.7 05:18:55 10° NNW 05:23:13 24° WNW 05:27:29 10° WSW visible
03 Nov 5.7 03:21:47 10° NE 03:26:20 26° E 03:30:50 10° SSE visible
03 Nov 4.3 05:01:41 10° N 05:06:36 34° WNW 05:11:29 10° SW visible
